Muskogee, OK

7:21 AM CDT on June 27, 2017 (GMT -0500)
Davis

Weather History for KMKO - November, 2013

Change the Weather History Date:

Friday, November 15, 2013

  Actual Average Record
Temperature  
Mean Temperature 54 °F -  
Max Temperature 64 °F 59 °F 77 °F (2016)
Min Temperature 43 °F 39 °F 26 °F (1997)
Degree Days  
Heating Degree Days 12    
Growing Degree Days 4 (Base 50)    
Moisture  
Dew Point 45 °F    
Average Humidity 78    
Maximum Humidity 93    
Minimum Humidity 50    
Precipitation  
Precipitation 0.21 in - - ()
Sea Level Pressure  
Sea Level Pressure 29.94 in    
Wind  
Wind Speed 9 mph (SSE)    
Max Wind Speed 15 mph    
Max Gust Speed 21 mph    
Visibility 9 miles    
Events Rain    
Averages and records for this station are not official NWS values.
T = Trace of Precipitation, MM = Missing Value Source: NWS Daily Summary

Daily Weather History Graph

Daily Weather History Graph

Search for Another Location

Airport or City:

Trip Planner

Search our weather history database for the weather conditions in past years. The results will help you decide how hot, cold, wet, or windy it might be!

Date:

Astronomy

Nov. 15, 2013 Rise Set
Actual Time 6:57 AM CST 5:14 PM CST
Civil Twilight 6:30 AM CST 5:41 PM CST
Nautical Twilight 5:59 AM CST 6:12 PM CST
Astronomical Twilight 5:29 AM CST 6:42 PM CST
Moon 4:09 PM CST (11/15) 4:58 AM CST (11/15)
Length of Visible Light 11h 11m
Length of Day
10h 16m
Waxing Gibbous, 96% of the Moon is Illuminated
Nov 15
Waxing Gibbous
Nov 17
Full
Nov 25
Last Quarter
Dec 2
New
Dec 9
First Quarter

Hourly Weather History & Observations

Time (CST) Temp. Windchill Dew Point Humidity Pressure Visibility Wind Dir Wind Speed Gust Speed Precip Events Conditions
12:53 AM 44.1 °F 39.5 °F 39.0 °F 82% 30.04 in 10.0 mi SE 8.1 mph - 0.02 in Rain Light Rain
1:53 AM 45.0 °F 41.8 °F 39.0 °F 80% 30.03 in 10.0 mi SE 5.8 mph - 0.00 in   Overcast
2:53 AM 44.1 °F 39.0 °F 39.0 °F 82% 30.02 in 9.0 mi SSE 9.2 mph - 0.01 in Rain Light Rain
3:53 AM 43.0 °F 38.2 °F 41.0 °F 93% 30.01 in 5.0 mi South 8.1 mph - 0.04 in Rain Heavy Rain
4:53 AM 43.0 °F 38.8 °F 41.0 °F 93% 30.01 in 6.0 mi SSE 6.9 mph - 0.11 in Rain Rain
5:53 AM 44.1 °F 40.8 °F 41.0 °F 89% 30.01 in 10.0 mi SE 5.8 mph - 0.03 in Rain Light Rain
6:53 AM 44.1 °F 40.8 °F 42.1 °F 93% 30.00 in 10.0 mi SSE 5.8 mph - 0.00 in   Overcast
7:53 AM 45.0 °F 43.5 °F 42.1 °F 90% 30.02 in 10.0 mi SSE 3.5 mph - N/A   Overcast
8:53 AM 50.0 °F - 44.1 °F 80% 30.01 in 10.0 mi SSE 9.2 mph - N/A   Clear
9:53 AM 54.0 °F - 45.0 °F 72% 29.99 in 10.0 mi SSE 12.7 mph - N/A   Clear
10:53 AM 59.0 °F - 46.9 °F 64% 29.99 in 10.0 mi South 15.0 mph 20.7 mph N/A   Partly Cloudy
11:53 AM 61.0 °F - 46.0 °F 58% 29.96 in 10.0 mi SSE 11.5 mph - N/A   Partly Cloudy
12:53 PM 62.1 °F - 45.0 °F 53% 29.92 in 10.0 mi South 11.5 mph 19.6 mph N/A   Clear
1:53 PM 64.0 °F - 45.0 °F 50% 29.91 in 10.0 mi SSW 13.8 mph 19.6 mph N/A   Clear
2:53 PM 63.0 °F - 45.0 °F 52% 29.88 in 10.0 mi SSE 11.5 mph - N/A   Clear
3:53 PM 60.1 °F - 46.0 °F 60% 29.87 in 10.0 mi SSE 12.7 mph - N/A   Clear
4:53 PM 55.9 °F - 46.0 °F 69% 29.87 in 10.0 mi SSE 10.4 mph - N/A   Clear
5:53 PM 53.1 °F - 46.9 °F 80% 29.87 in 10.0 mi SE 12.7 mph - N/A   Clear
6:53 PM 52.0 °F - 46.9 °F 83% 29.88 in 10.0 mi SSE 10.4 mph - N/A   Clear
7:53 PM 52.0 °F - 46.9 °F 83% 29.89 in 10.0 mi SE 10.4 mph - N/A   Clear
8:53 PM 52.0 °F - 48.0 °F 86% 29.88 in 10.0 mi SE 13.8 mph - N/A   Clear
9:43 PM 51.8 °F - 48.2 °F 88% 29.88 in 10.0 mi SE 11.5 mph - N/A   Mostly Cloudy
9:53 PM 52.0 °F - 48.0 °F 86% 29.88 in 10.0 mi SE 13.8 mph - N/A   Overcast
10:22 PM 51.8 °F - 48.2 °F 88% 29.87 in 10.0 mi SE 15.0 mph - N/A   Scattered Clouds
10:53 PM 51.1 °F - 48.0 °F 89% 29.86 in 8.0 mi SSE 15.0 mph - N/A   Partly Cloudy
11:53 PM 51.1 °F - 48.9 °F 92% 29.85 in 7.0 mi SSE 10.4 mph - N/A   Clear